sat.trackr.live / text

‹ back to catalog

TRISAT-4

NORAD 67482 · 2025-313BE

PAYLOAD ACTIVE UNKNOWN

§ Identity

Operator
Country
CIS
Launch date
2025-12-28
Launch site
VOSTO
Launch vehicle
Mass (kg)
RCS (m²)

External: N2YO · Heavens-Above · Gunter

§ Orbital elements

Epoch: 2026-08-19T04:10:57.547488Z

Period
90.01 min
Inclination
97.3670°
Eccentricity
0.0010784
Mean motion
15.99807030 rev/d
Perigee alt
267.8 km
Apogee alt
282.1 km
Semi-major
6,653.1 km
B*
2.6073e-3
RAAN
311.8103°
Arg perigee
264.2748°
Mean anomaly
95.7300°
Rev number
3,313

§ Raw data

TRISAT-41 67482U 25313BE  26231.17427717  .01297284  89973-3  26073-2 0  99932 67482  97.3670 311.8103 0010784 264.2748  95.7300 15.99807030 33137

JSON: /api/v1/satellites/67482 · /tle

For live sub-satellite position, see the globe view (requires WebGL).

§ Visibility from observer

Set your observer location to see the next 7 days of passes ≥ 10°. The values pass through the URL so the page stays shareable.

No JS? Fill the form by hand. The geolocation button needs JavaScript.